Вернуться в каталог

STARLINK-30427

АктивенСвязьVLEO
NORAD 57865·PAYLOAD·🇺🇸 United States

Запущен Sep 16, 2023 с Cape Canaveral Space Force Station

Loading…

Ближайшие Пролёты (ближайшие 24 часа)

TLE

СвежийSource: CelesTrak SupGP

Эпоха: Sep 14, 2026, 22:18 UTC

1 57865C 23144B   26257.92965278  .00009708  00000+0  35164-3 0  2577
2 57865  43.0014 296.3784 0001396 266.6921 335.3618 15.27572033    10

Отслеживайте STARLINK-30427 в реальном времени с AllMySat

Download on the App Store